| time (UTC) | temp C | wind direction | speed KPH | gust KPH | rain 1hr cm | rain 24hr cm | rain mn cm | humidity % | barometer mb |
| 20260506001546 | 24 | 171 | 1.6 | 19.3 | 0.00 | 0.00 | 0.00 | 40 | 1006.8 |
| 20260506000043 | 25 | 150 | 4.8 | 22.5 | 0.00 | 0.00 | 0.00 | 38 | 1006.7 |
| 20260505234542 | 25 | 160 | 3.2 | 19.3 | 0.00 | 0.00 | 0.00 | 36 | 1006.7 |
| 20260505233040 | 25 | 94 | 1.6 | 9.7 | 0.00 | 0.00 | 0.00 | 35 | 1006.7 |
| 20260505231541 | 25 | 154 | 4.8 | 16.1 | 0.00 | 0.00 | 0.00 | 33 | 1006.5 |
| 20260505230051 | 26 | 162 | 9.7 | 20.9 | 0.00 | 0.00 | 0.00 | 32 | 1006.3 |
| 20260505224539 | 26 | 185 | 8.0 | 19.3 | 0.00 | 0.00 | 0.00 | 32 | 1006.2 |
| 20260505223052 | 26 | 143 | 6.4 | 16.1 | 0.00 | 0.00 | 0.00 | 32 | 1006.0 |
| 20260505221537 | 26 | 73 | 4.8 | 19.3 | 0.00 | 0.00 | 0.00 | 32 | 1006.0 |
| 20260505220042 | 27 | 113 | 6.4 | 19.3 | 0.00 | 0.00 | 0.00 | 30 | 1005.8 |
| 20260505214536 | 26 | 118 | 4.8 | 19.3 | 0.00 | 0.00 | 0.00 | 29 | 1005.9 |
| 20260505213137 | 26 | 175 | 3.2 | 25.7 | 0.00 | 0.00 | 0.00 | 30 | 1005.7 |
| 20260505211533 | 27 | 126 | 6.4 | 33.8 | 0.00 | 0.00 | 0.00 | 31 | 1005.4 |
| 20260505210032 | 27 | 121 | 14.5 | 29.0 | 0.00 | 0.00 | 0.00 | 30 | 1005.4 |
| 20260505204530 | 27 | 202 | 4.8 | 24.1 | 0.00 | 0.00 | 0.00 | 32 | 1005.4 |
| 20260505203042 | 27 | 133 | 4.8 | 27.4 | 0.00 | 0.00 | 0.00 | 32 | 1005.5 |
| 20260505201528 | 27 | 140 | 8.0 | 35.4 | 0.00 | 0.00 | 0.00 | 31 | 1005.6 |
| 20260505200034 | 27 | 147 | 11.3 | 30.6 | 0.00 | 0.00 | 0.00 | 30 | 1005.6 |
| 20260505194525 | 27 | 147 | 3.2 | 25.7 | 0.00 | 0.00 | 0.00 | 32 | 1005.5 |
| 20260505193023 | 27 | 135 | 11.3 | 29.0 | 0.00 | 0.00 | 0.00 | 33 | 1005.9 |
| 20260505191521 | 27 | 132 | 11.3 | 32.2 | 0.00 | 0.00 | 0.00 | 32 | 1006.1 |
| 20260505190024 | 27 | 176 | 9.7 | 22.5 | 0.00 | 0.00 | 0.00 | 33 | 1006.2 |
| 20260505184522 | 27 | 117 | 9.7 | 25.7 | 0.00 | 0.00 | 0.00 | 34 | 1006.4 |
| 20260505183014 | 27 | 182 | 8.0 | 35.4 | 0.00 | 0.00 | 0.00 | 34 | 1006.8 |
| 20260505181512 | 27 | 167 | 9.7 | 20.9 | 0.00 | 0.00 | 0.00 | 37 | 1006.8 |
| 20260505180011 | 27 | 189 | 9.7 | 27.4 | 0.00 | 0.00 | 0.00 | 38 | 1006.9 |
| 20260505174514 | 26 | 111 | 4.8 | 29.0 | 0.00 | 0.00 | 0.00 | 38 | 1007.0 |
| 20260505173025 | 27 | 131 | 3.2 | 17.7 | 0.00 | 0.00 | 0.00 | 40 | 1007.1 |
| 20260505171505 | 26 | 123 | 4.8 | 20.9 | 0.00 | 0.00 | 0.00 | 40 | 1007.5 |
| 20260505170002 | 26 | 153 | 8.0 | 24.1 | 0.00 | 0.00 | 0.00 | 40 | 1007.6 |
| 20260505164605 | 26 | 146 | 6.4 | 16.1 | 0.00 | 0.00 | 0.00 | 43 | 1007.8 |
| 20260505163102 | 25 | 133 | 6.4 | 14.5 | 0.00 | 0.00 | 0.00 | 44 | 1008.0 |
| 20260505161554 | 25 | 161 | 4.8 | 22.5 | 0.00 | 0.00 | 0.00 | 45 | 1008.2 |
| 20260505153104 | 23 | 123 | 6.4 | 19.3 | 0.00 | 0.00 | 0.00 | 49 | 1008.8 |
| 20260505151553 | 22 | 146 | 8.0 | 19.3 | 0.00 | 0.00 | 0.00 | 49 | 1008.9 |
| 20260505124510 | 16 | 152 | 3.2 | 9.7 | 0.00 | 0.00 | 0.00 | 70 | 1009.0 |
| 20260505123006 | 15 | 142 | 3.2 | 12.9 | 0.00 | 0.00 | 0.00 | 74 | 1009.1 |
| 20260505121502 | 14 | 169 | 1.6 | 12.9 | 0.00 | 0.00 | 0.00 | 76 | 1009.2 |
| 20260505120059 | 13 | 177 | 3.2 | 14.5 | 0.00 | 0.00 | 0.00 | 79 | 1009.6 |
| 20260505114555 | 12 | 160 | 0.0 | 9.7 | 0.00 | 0.00 | 0.00 | 85 | 1009.6 |
| 20260505113100 | 12 | 134 | 0.0 | 1.6 | 0.00 | 0.00 | 0.00 | 87 | 1009.5 |
| 20260505111557 | 12 | 134 | 0.0 | 3.2 | 0.00 | 0.00 | 0.00 | 86 | 1009.0 |
| 20260505101547 | 10 | 134 | 0.0 | 3.2 | 0.00 | 0.00 | 0.00 | 84 | 1009.3 |
| 20260505100051 | 10 | 134 | 0.0 | 3.2 | 0.00 | 0.00 | 0.00 | 87 | 1009.0 |
| 20260505094544 | 10 | 134 | 0.0 | 3.2 | 0.00 | 0.00 | 0.00 | 87 | 1009.1 |
| 20260505093043 | 10 | 134 | 0.0 | 0.0 | 0.00 | 0.00 | 0.00 | 86 | 1008.8 |
| 20260505091552 | 10 | 134 | 0.0 | 0.0 | 0.00 | 0.00 | 0.00 | 85 | 1008.7 |
| 20260505090051 | 11 | 134 | 0.0 | 0.0 | 0.00 | 0.00 | 0.00 | 82 | 1008.5 |
| 20260505084539 | 11 | 134 | 0.0 | 0.0 | 0.00 | 0.00 | 0.00 | 82 | 1008.4 |
| 20260505083043 | 11 | 134 | 0.0 | 3.2 | 0.00 | 0.00 | 0.00 | 81 | 1008.5 |
| 20260505081551 | 11 | 134 | 0.0 | 3.2 | 0.00 | 0.00 | 0.00 | 80 | 1008.5 |
| 20260505080042 | 11 | 134 | 0.0 | 3.2 | 0.00 | 0.00 | 0.00 | 79 | 1008.6 |
| 20260505074540 | 11 | 134 | 0.0 | 3.2 | 0.00 | 0.00 | 0.00 | 81 | 1008.6 |
| 20260505073034 | 11 | 134 | 0.0 | 3.2 | 0.00 | 0.00 | 0.00 | 80 | 1008.6 |
| 20260505071532 | 11 | 134 | 0.0 | 3.2 | 0.00 | 0.00 | 0.00 | 81 | 1008.4 |
| 20260505070031 | 11 | 134 | 0.0 | 0.0 | 0.00 | 0.00 | 0.00 | 80 | 1008.6 |
| 20260505064533 | 11 | 134 | 0.0 | 0.0 | 0.00 | 0.00 | 0.00 | 79 | 1008.6 |
| 20260505063035 | 11 | 134 | 0.0 | 0.0 | 0.00 | 0.00 | 0.00 | 78 | 1008.6 |
| 20260505061532 | 11 | 134 | 0.0 | 0.0 | 0.00 | 0.00 | 0.00 | 77 | 1008.7 |
| 20260505060024 | 11 | 134 | 0.0 | 0.0 | 0.00 | 0.00 | 0.00 | 76 | 1008.7 |
| 20260505054526 | 11 | 134 | 0.0 | 0.0 | 0.00 | 0.00 | 0.00 | 74 | 1008.8 |
| 20260505053020 | 12 | 134 | 0.0 | 0.0 | 0.00 | 0.00 | 0.00 | 73 | 1008.8 |
| 20260505051518 | 12 | 134 | 0.0 | 0.0 | 0.00 | 0.00 | 0.00 | 71 | 1009.0 |
| 20260505041512 | 12 | 136 | 0.0 | 1.6 | 0.00 | 0.00 | 0.00 | 68 | 1009.1 |
| 20260505040011 | 12 | 136 | 0.0 | 3.2 | 0.00 | 0.00 | 0.00 | 67 | 1009.1 |
| 20260505034512 | 12 | 136 | 0.0 | 0.0 | 0.00 | 0.00 | 0.00 | 65 | 1009.1 |
| 20260505033020 | 12 | 136 | 0.0 | 0.0 | 0.00 | 0.00 | 0.00 | 64 | 1009.2 |
| 20260505031509 | 13 | 136 | 0.0 | 0.0 | 0.00 | 0.00 | 0.00 | 62 | 1009.2 |
| 20260505030009 | 13 | 136 | 0.0 | 0.0 | 0.00 | 0.00 | 0.00 | 62 | 1009.4 |
| 20260505024523 | 13 | 136 | 0.0 | 0.0 | 0.00 | 0.00 | 0.00 | 61 | 1009.3 |
| 20260505023008 | 13 | 136 | 0.0 | 0.0 | 0.00 | 0.00 | 0.00 | 60 | 1009.3 |
| 20260505021523 | 14 | 136 | 0.0 | 0.0 | 0.00 | 0.00 | 0.00 | 58 | 1009.2 |
| 20260505020007 | 15 | 136 | 0.0 | 0.0 | 0.00 | 0.00 | 0.00 | 58 | 1009.4 |
| 20260505014506 | 15 | 136 | 0.0 | 0.0 | 0.00 | 0.00 | 0.00 | 56 | 1009.1 |
| 20260505013006 | 16 | 136 | 0.0 | 0.0 | 0.00 | 0.00 | 0.00 | 56 | 1009.1 |
| 20260505011507 | 16 | 136 | 0.0 | 1.6 | 0.00 | 0.00 | 0.00 | 52 | 1008.9 |
| 20260505010006 | 17 | 132 | 0.0 | 0.0 | 0.00 | 0.00 | 0.00 | 50 | 1008.7 |
| 20260505004513 | 17 | 160 | 0.0 | 3.2 | 0.00 | 0.00 | 0.00 | 49 | 1008.4 |
| 20260505003005 | 18 | 163 | 0.0 | 4.8 | 0.00 | 0.00 | 0.00 | 46 | 1008.3 |